User: anonymous   Login
Location: ????
(55.2778°N, 39.2433°E)
Time: 16:37:39
(UTC+00:00)
Language:

Cosmos 1371 Rocket - Orbit

View from above orbital plane
View from above orbital plane
View from above satellite
View from above satellite

Ground track
Ground track

The orbit data is extracted from the following two-line orbital elements,

1 13242U 82051B   24176.89492032  .00000296  00000-0  10920-3 0  9997
2 13242  74.0443 326.1775 0025467 257.4704 102.3600 14.36678091201505
Epoch (UTC): 24 June 2024 21:28:41
Eccentricity: 0.0025467
inclination: 74.0443°
perigee height: 751 km
apogee height: 788 km
right ascension of ascending node: 326.1775°
argument of perigee: 257.4704°
revolutions per day: 14.36678091
mean anomaly at epoch: 102.3600°
orbit number at epoch: 20150

The dashed part of the orbit path shows where the satellite is in the earth's shadow,  

DLR